Regional Weather Roundup
Issued by NWS

Home | Current Version | Previous Version | Graphics & Text | Print | Product List | Glossary On
Versions: 1 2 3 4 5 6 7 8 9 10 11 12 13 14 15 16 17 18 19 20 21 22 23 24 25 26 27 28 29 30 31 32 33 34 35 36 37 38 39 40 41 42 43 44 45 46 47 48 49 50
000
ASUS43 KBIS 242310
RWRND

NORTH DAKOTA REGIONAL WEATHER ROUNDUP
NATIONAL WEATHER SERVICE BISMARCK ND
600 PM CDT SUN JUL 24 2016

NOTE: "FAIR" INDICATES FEW OR NO CLOUDS BELOW 12,000 FEET WITH NO
SIGNIFICANT WEATHER AND/OR OBSTRUCTIONS TO VISIBILITY.


NDZ001>003-009>011-017-250000-
NORTHWEST NORTH DAKOTA

CITY           SKY/WX    TMP DP  RH WIND       PRES   REMARKS
WILLISTON      MOSUNNY   86  50  28 W9        30.00S
MINOT          SUNNY     84  56  38 W13       29.99S
MINOT AFB      SUNNY     80  56  45 NW12      29.98S
$$

NDZ018>021-031>035-040>046-250000-
SOUTHWEST NORTH DAKOTA

CITY           SKY/WX    TMP DP  RH WIND       PRES   REMARKS
BISMARCK       SUNNY     84  54  35 W9        30.02S
DICKINSON      SUNNY     83  48  29 NW8       30.04F
GARRISON         N/A     81  53  37 NW13G22   30.02S
HETTINGER ARPT PTSUNNY   89  44  20 VRB6      30.07F
$$

NDZ004>008-012>016-024-026-027-054-250000-
NORTHEAST NORTH DAKOTA

CITY           SKY/WX    TMP DP  RH WIND       PRES   REMARKS
GRAND FORKS    MOSUNNY   79  61  53 W13       29.90R
GRND FRKS AFB  SUNNY     80  59  48 W15G22    29.92R
DEVILS LAKE    SUNNY     77  57  50 NW17      29.96S
$$

NDZ022-023-025-028>030-036>039-047>053-250000-
SOUTHEAST NORTH DAKOTA

CITY           SKY/WX    TMP DP  RH WIND       PRES   REMARKS
FARGO          SUNNY     81  55  40 W18G24    29.94R
JAMESTOWN      SUNNY     79  57  46 NW20      29.98S
$$





USA.gov is the U.S. government's official web portal to all federal, state and local government web resources and services.